Location: Castiglione Fibocchi
(43.5333°N, 11.7667°E)
Time: 10:28:27
(UTC+00:00)

Cosmos 1943 - Visible Passes

Search period start: 26 November 2020 00:00
Search period end: 06 December 2020 00:00
Orbit: 832 x 851 km, 71.0° (Epoch: 26 November)

Date Brightness Start Highest point End Pass type
(mag) Time Alt. Az. Time Alt. Az. Time Alt. Az.
26 Nov 5.4 02:35:20 19° NE 02:35:27 19° NE 02:39:25 10° E visible
26 Nov 3.1 04:17:13 30° NNW 04:20:12 81° WSW 04:25:54 10° SSE visible
26 Nov 4.4 17:24:13 10° SSE 17:27:22 23° ESE 17:27:22 23° ESE visible
26 Nov 5.0 19:06:54 10° SW 19:09:15 25° SW 19:09:15 25° SW visible
27 Nov 5.6 02:21:31 17° ENE 02:21:31 17° ENE 02:24:11 10° E visible
27 Nov 3.1 04:03:24 47° NNW 04:05:09 85° WSW 04:10:51 10° SSE visible
27 Nov 5.0 05:46:17 10° WNW 05:48:16 12° W 05:50:14 10° WSW visible
27 Nov 4.3 17:09:18 10° SSE 17:13:41 24° ESE 17:13:42 24° E visible
27 Nov 4.4 18:51:48 10° SW 18:55:34 39° WSW 18:55:34 39° WSW visible
28 Nov 5.9 02:07:47 13° ENE 02:07:47 13° ENE 02:08:57 10° E visible
28 Nov 3.1 03:49:39 77° NNW 03:50:06 89° WSW 03:55:48 10° SSE visible
28 Nov 4.9 05:31:32 11° WNW 05:33:15 13° W 05:35:35 10° WSW visible
28 Nov 4.3 16:54:23 10° SSE 16:58:39 22° E 16:59:56 21° E visible
28 Nov 3.8 18:36:42 10° SW 18:41:48 54° W 18:41:48 54° W visible
29 Nov 3.4 03:36:00 64° SSE 03:36:00 64° SSE 03:40:44 10° SSE visible
29 Nov 4.8 05:17:53 13° W 05:18:14 13° W 05:20:52 10° SW visible
29 Nov 4.4 16:39:29 10° SSE 16:43:37 21° E 16:46:06 16° ENE visible
29 Nov 3.6 18:21:36 10° SW 18:27:11 58° WNW 18:27:58 53° NNW visible
30 Nov 4.3 03:22:24 36° SSE 03:22:24 36° SSE 03:25:41 10° SSE visible
30 Nov 4.9 05:04:17 14° WSW 05:04:17 14° WSW 05:06:07 10° SW visible
30 Nov 4.5 16:24:36 10° SE 16:28:36 20° E 16:32:10 12° ENE visible
30 Nov 3.6 18:06:31 10° SW 18:12:06 61° WNW 18:14:01 40° N visible
30 Nov 6.0 19:55:04 10° WNW 19:55:52 11° WNW 19:55:52 11° WNW visible
01 Dec 5.1 03:08:50 21° SSE 03:08:50 21° SSE 03:10:37 10° SSE visible
01 Dec 5.2 04:50:44 12° SW 04:50:44 12° SW 04:51:19 10° SW visible
01 Dec 4.6 16:09:43 10° SE 16:13:34 19° E 16:17:26 10° NE visible
01 Dec 3.5 17:51:25 10° SW 17:57:02 64° WNW 17:59:58 29° N visible
01 Dec 5.9 19:39:44 10° WNW 19:41:49 13° NW 19:41:49 13° NW visible
02 Dec 5.7 02:55:16 11° SSE 02:55:16 11° SSE 02:55:32 10° SSE visible
02 Dec 3.5 17:36:20 10° SW 17:41:58 68° WNW 17:45:50 21° NNE visible
02 Dec 5.7 19:24:24 10° WNW 19:27:09 13° NW 19:27:41 13° NW visible
03 Dec 3.4 17:21:15 10° SSW 17:26:54 71° WNW 17:31:37 15° NNE visible
03 Dec 5.7 19:09:07 10° WNW 19:12:02 14° NW 19:13:27 13° NNW visible
04 Dec 3.4 17:06:10 10° SSW 17:11:50 75° WNW 17:17:20 11° NNE visible
04 Dec 5.7 18:53:49 10° WNW 18:56:55 15° NW 18:59:09 12° NNW visible
05 Dec 3.3 16:51:06 10° SSW 16:56:46 79° WNW 17:02:30 10° NNE visible
05 Dec 5.7 18:38:33 10° W 18:41:48 15° NW 18:44:48 11° N visible
